Wind_Speed
14 13 13 13 14 13 13 14 13 12 11 10 9 9 8 8 7 7 6 5 4 3 3 5 5 5 5 5 6 5 5 5 4 4 4 3 4 4 5 5 5 6
15 15 14 14 14 14 14 14 14 14 13 12 11 10 9 8 8 7 6 5 4 2 3 4 5 5 5 5 6 6 6 6 6 6 6 5 5 5 6 5 5 6
16 15 15 15 14 15 15 15 15 14 14 13 11 11 10 10 9 8 7 5 4 2 2 4 5 5 5 6 7 7 7 7 8 9 9 8 8 7 7 6 6 6
17 16 16 16 16 15 15 15 15 15 14 13 13 12 11 10 10 9 7 6 4 2 2 3 4 5 6 6 7 8 8 8 9 10 11 11 10 9 8 8 7 6
19 17 17 16 16 15 15 15 15 15 14 14 13 13 12 11 11 10 8 6 4 2 1 2 4 5 6 7 8 9 9 9 9 10 11 11 11 10 10 9 8 7
20 18 17 16 16 15 15 15 15 15 14 14 13 13 12 12 11 10 9 7 5 3 1 1 3 5 7 8 9 10 11 11 11 10 10 11 11 11 10 9 8 7
20 19 18 17 16 15 15 15 15 15 14 14 13 12 12 11 11 10 9 7 5 4 2 1 2 5 8 9 10 11 11 12 11 11 10 10 10 10 10 9 8 8
22 21 20 18 17 16 16 16 15 15 15 14 14 13 12 12 11 10 9 7 6 5 3 2 2 6 8 9 10 11 12 12 11 11 10 10 10 10 9 9 8 7
24 23 21 19 18 17 17 17 16 16 15 14 14 14 14 13 12 11 10 8 7 6 4 3 4 6 9 10 10 11 12 12 11 11 10 9 9 9 8 8 7 6
25 24 23 21 19 18 19 18 18 17 15 15 14 14 14 14 13 12 11 10 8 7 6 5 6 8 10 11 12 12 12 12 11 10 10 9 8 8 7 7 6 5
24 25 24 23 22 21 20 20 20 19 17 16 15 14 14 14 14 13 12 11 10 9 8 8 7 9 12 13 13 13 13 12 12 11 10 8 7 7 6 6 5 4
22 24 25 25 25 24 23 22 21 20 19 18 16 15 14 13 13 13 13 12 11 10 10 9 9 10 12 14 14 14 14 13 12 11 10 8 7 5 5 4 4 3
20 22 25 27 27 27 26 25 23 22 21 20 18 17 15 14 13 14 14 14 12 11 11 10 10 10 12 14 14 14 14 14 13 12 11 9 7 6 4 3 3 3
20 22 24 27 29 29 29 27 26 24 23 22 20 18 16 15 15 15 15 15 14 12 12 11 10 11 12 13 14 14 14 14 13 12 11 9 8 7 6 5 4 4
22 23 24 26 28 29 29 28 27 27 26 24 22 20 18 17 17 17 16 16 15 14 13 12 11 12 12 13 15 15 14 14 14 13 11 10 9 8 7 7 6 6
24 24 24 25 26 26 27 27 28 28 28 27 25 23 21 20 19 18 17 16 16 15 14 13 13 13 14 14 15 16 15 15 14 14 12 11 10 9 8 8 8 8
25 25 24 24 24 25 26 27 28 28 29 28 28 26 24 22 21 19 18 17 17 17 16 15 15 15 16 16 15 16 16 16 16 15 14 12 11 10 10 9 9 10
24 25 25 25 25 26 26 27 27 28 28 29 28 28 27 25 23 21 20 19 19 18 17 16 16 17 18 17 17 16 16 16 17 16 15 14 13 13 12 12 11 12
21 23 24 26 27 27 28 28 27 27 27 27 28 28 28 27 25 24 23 22 20 19 18 18 18 19 19 19 19 18 17 17 17 17 17 16 16 15 15 15 14 14
19 20 22 24 26 27 28 28 27 27 27 27 28 28 28 27 26 26 25 24 23 22 21 20 20 20 20 20 20 20 19 19 18 18 18 18 18 17 17 17 17 16
20 20 21 22 23 25 26 28 28 28 28 28 28 27 27 27 27 27 27 26 25 25 24 22 22 21 21 21 21 21 21 21 20 19 19 19 19 19 19 20 20 19
24 24 23 22 22 23 24 26 27 28 28 28 28 27 27 27 27 27 27 27 27 27 25 24 24 23 23 22 22 22 22 22 22 22 21 21 21 21 22 22 22 21
31 29 27 24 23 23 23 24 26 27 28 28 28 27 27 26 26 26 27 27 27 27 26 26 26 26 25 24 24 24 23 23 23 23 23 23 23 23 24 23 23 23
36 34 31 29 27 25 24 25 25 26 27 28 28 27 27 26 27 27 27 27 27 27 27 27 27 27 27 27 26 26 25 24 23 24 24 24 24 25 25 25 24 24
38 35 33 31 30 28 27 26 26 26 27 28 28 28 27 27 27 26 26 26 26 26 27 27 28 28 29 28 28 28 27 25 24 24 24 24 25 26 27 27 26 26
38 35 32 30 30 31 30 29 27 27 27 28 28 28 27 26 26 25 25 25 26 26 26 26 27 28 28 29 30 29 29 27 26 24 23 24 26 28 29 29 28 28
Wind_Direction
189 187 186 184 184 184 182 179 179 180 178 178 179 180 180 178 178 176 175 174 166 142 97 79 69 69 75 85 94 101 102 103 102 100 104 116 132 143 145 145 140 132
195 192 189 186 186 186 187 185 183 182 182 184 184 186 188 188 189 186 184 182 176 153 96 75 72 74 83 94 101 108 112 111 111 106 102 104 111 126 138 144 142 133
200 198 194 189 188 189 190 190 188 186 185 185 188 192 193 194 197 196 195 194 188 162 104 77 75 83 96 106 110 118 122 119 114 108 102 99 99 105 117 131 139 140
204 203 201 195 191 192 193 193 193 192 189 189 191 196 197 198 201 204 205 205 200 181 113 82 81 96 113 120 122 127 129 124 116 110 106 103 100 100 104 114 128 138
210 207 206 202 195 193 194 195 196 196 197 197 197 199 201 202 205 209 213 213 210 203 134 89 91 112 129 133 133 133 134 129 121 113 108 106 104 100 99 104 114 126
215 212 209 208 202 195 194 198 199 198 200 203 205 207 208 208 211 214 218 221 220 222 198 93 103 129 142 143 140 138 136 133 126 119 113 109 107 103 99 99 104 114
220 218 213 211 208 202 199 201 203 201 201 203 206 212 216 219 221 222 223 225 229 234 232 142 125 145 152 151 146 143 138 136 131 125 119 114 111 109 105 102 102 106
224 223 218 212 209 207 206 205 205 205 203 201 203 207 214 222 228 231 231 231 233 236 231 205 162 159 160 157 152 148 143 139 136 131 127 121 116 115 113 111 108 106
223 225 223 218 212 210 211 210 209 209 206 204 204 204 207 215 225 232 236 236 236 234 225 210 185 171 168 163 158 155 149 145 141 136 132 128 123 120 119 118 118 114
221 225 225 223 219 215 215 214 214 213 211 210 209 207 207 212 218 227 234 236 236 234 225 213 199 183 176 170 165 162 157 151 147 143 138 134 129 125 121 121 124 125
218 222 224 224 222 221 219 218 218 216 214 214 213 211 212 214 216 222 230 234 235 235 228 220 211 196 184 178 172 168 165 158 154 150 146 142 137 133 127 124 126 130
213 217 220 221 222 222 222 221 221 219 218 217 215 214 214 216 218 221 227 232 234 236 232 225 219 208 195 187 180 174 170 166 161 158 155 153 150 149 147 141 139 140
211 213 215 217 219 220 221 221 221 221 220 219 217 215 214 215 219 223 227 230 231 233 234 228 223 217 206 198 191 182 176 172 169 166 163 164 165 169 175 180 182 182
210 211 212 214 216 218 219 220 220 221 222 221 219 217 214 214 217 221 227 230 230 231 234 231 226 223 215 206 201 194 184 178 177 175 173 173 176 182 192 204 214 219
210 210 211 213 215 218 219 219 220 220 221 222 221 218 216 214 215 219 225 231 232 231 231 231 228 225 221 214 209 205 196 187 183 182 183 184 186 193 203 212 220 227
210 210 211 212 213 215 216 217 218 219 220 221 221 219 217 216 215 217 221 227 231 232 230 228 227 225 224 220 215 212 206 199 193 191 192 193 196 201 210 220 228 236
211 211 211 211 211 212 213 215 216 217 219 219 220 220 219 218 217 216 218 221 226 230 229 227 225 225 225 224 222 218 213 207 204 203 201 202 206 211 217 224 230 237
210 210 211 211 211 212 214 215 216 217 218 219 220 220 220 220 218 217 217 219 222 226 228 227 226 226 226 226 225 224 220 215 212 211 211 213 216 220 224 228 232 235
212 211 212 212 213 214 215 217 217 217 217 218 218 219 220 220 219 218 219 219 220 222 223 225 226 228 228 228 228 228 227 224 220 218 219 222 225 227 229 232 236 238
218 217 216 216 216 216 217 217 217 216 217 218 218 219 219 219 219 220 220 220 220 220 221 222 224 227 229 229 229 230 229 229 228 226 225 226 230 232 234 235 237 240
218 219 218 217 218 218 217 217 216 216 217 219 220 219 218 216 217 218 220 221 220 220 220 221 222 225 228 229 230 230 230 230 231 231 230 230 231 234 237 238 238 240
216 218 216 215 216 217 219 219 217 217 216 217 220 220 218 216 215 215 218 221 221 221 221 220 221 224 226 228 229 229 229 229 229 230 231 232 232 235 237 239 240 241
213 213 213 213 213 213 217 219 219 217 216 216 217 219 219 217 214 212 213 217 221 223 222 221 222 224 225 227 229 230 229 228 228 229 230 231 233 236 238 240 240 241
215 210 209 212 212 210 211 215 218 218 217 215 214 216 218 218 215 213 211 213 217 221 223 222 223 224 225 226 229 232 231 229 228 228 229 229 232 235 239 241 241 241
216 208 205 208 211 211 210 211 214 216 217 216 214 214 217 218 218 216 213 212 214 218 223 225 226 227 228 228 230 233 234 233 230 229 229 229 231 234 238 241 242 242
213 207 205 206 209 212 212 211 211 214 217 217 215 214 216 219 220 219 216 214 213 214 219 224 228 231 232 232 232 233 236 237 235 232 230 230 232 234 237 239 241 243
Height
5941 5942 5944 5945 5946 5947 5948 5949 5950 5951 5952 5953 5954 5955 5956 5957 5957 5958 5959 5959 5960 5961 5962 5962 5963 5963 5963 5963 5963 5963 5963 5963 5963 5963 5964 5964 5964 5965 5965 5965 5965 5965
5940 5941 5943 5944 5946 5947 5948 5949 5950 5951 5952 5953 5954 5955 5956 5956 5957 5958 5958 5959 5960 5961 5962 5962 5963 5963 5963 5963 5963 5963 5963 5963 5964 5964 5964 5964 5965 5965 5965 5965 5965 5965
5940 5941 5942 5943 5945 5946 5947 5948 5949 5951 5952 5953 5953 5954 5955 5956 5957 5957 5958 5959 5960 5961 5961 5962 5963 5963 5963 5963 5963 5963 5963 5963 5964 5964 5964 5965 5965 5965 5965 5965 5965 5966
5939 5940 5941 5942 5944 5945 5947 5948 5949 5950 5951 5952 5953 5954 5955 5956 5956 5957 5958 5959 5959 5960 5961 5962 5962 5963 5963 5963 5964 5964 5964 5964 5964 5965 5965 5966 5966 5966 5966 5966 5966 5966
5938 5940 5941 5942 5943 5944 5946 5947 5949 5950 5951 5952 5953 5954 5954 5955 5956 5957 5957 5958 5959 5960 5961 5962 5962 5963 5963 5963 5964 5964 5964 5965 5965 5966 5966 5966 5966 5966 5966 5966 5966 5966
5938 5939 5941 5941 5943 5944 5945 5946 5948 5949 5950 5951 5952 5953 5954 5955 5956 5956 5957 5958 5959 5959 5960 5961 5962 5963 5963 5964 5964 5965 5965 5965 5966 5966 5966 5967 5967 5967 5967 5967 5967 5967
5937 5939 5940 5941 5942 5944 5945 5946 5947 5948 5950 5951 5952 5953 5953 5954 5955 5956 5957 5958 5958 5959 5960 5961 5962 5963 5963 5964 5964 5965 5965 5966 5966 5966 5967 5967 5967 5967 5967 5967 5967 5968
5936 5938 5939 5940 5942 5943 5944 5945 5946 5947 5948 5950 5951 5952 5953 5954 5954 5955 5957 5958 5958 5959 5960 5961 5962 5963 5963 5964 5965 5965 5965 5966 5966 5967 5967 5968 5968 5968 5968 5968 5968 5968
5934 5936 5938 5940 5941 5942 5943 5944 5945 5946 5947 5948 5949 5951 5952 5953 5954 5955 5956 5957 5957 5958 5959 5960 5961 5962 5963 5964 5965 5965 5966 5966 5966 5967 5967 5968 5968 5968 5968 5968 5968 5969
5931 5934 5936 5939 5940 5941 5942 5943 5944 5945 5946 5947 5948 5949 5951 5952 5953 5954 5955 5956 5956 5957 5958 5959 5960 5961 5962 5964 5965 5965 5966 5966 5966 5967 5967 5968 5968 5968 5968 5969 5969 5969
5928 5931 5934 5936 5938 5940 5941 5942 5942 5943 5944 5945 5946 5948 5949 5950 5952 5953 5954 5955 5955 5956 5957 5958 5959 5960 5961 5962 5964 5965 5965 5966 5966 5966 5967 5967 5968 5968 5968 5968 5968 5969
5925 5928 5931 5933 5935 5937 5938 5940 5941 5942 5943 5943 5945 5946 5947 5948 5950 5951 5952 5953 5954 5955 5956 5957 5958 5959 5960 5961 5963 5964 5964 5965 5965 5966 5966 5967 5967 5967 5967 5968 5968 5968
5922 5924 5927 5929 5931 5933 5934 5937 5938 5940 5941 5942 5942 5944 5945 5946 5948 5949 5950 5951 5953 5954 5954 5956 5957 5958 5959 5960 5961 5963 5963 5964 5964 5965 5965 5966 5966 5967 5967 5967 5967 5968
5919 5921 5923 5925 5926 5928 5931 5933 5935 5937 5938 5939 5940 5942 5943 5944 5946 5947 5948 5949 5951 5952 5953 5954 5955 5956 5958 5959 5960 5961 5962 5963 5963 5964 5964 5965 5966 5966 5966 5966 5966 5967
5916 5918 5920 5921 5923 5926 5928 5930 5932 5934 5936 5937 5938 5939 5940 5942 5943 5944 5946 5947 5949 5950 5952 5953 5954 5955 5956 5957 5958 5960 5961 5962 5962 5963 5963 5964 5964 5965 5965 5965 5965 5965
5914 5916 5918 5919 5922 5924 5926 5927 5929 5931 5933 5934 5935 5936 5937 5939 5940 5942 5944 5945 5947 5948 5950 5951 5952 5953 5954 5955 5956 5958 5959 5960 5961 5962 5962 5963 5963 5963 5964 5964 5964 5964
5912 5914 5916 5918 5920 5922 5923 5925 5926 5928 5929 5931 5932 5933 5934 5935 5937 5940 5942 5943 5945 5946 5947 5949 5950 5951 5952 5953 5954 5955 5957 5958 5959 5960 5961 5961 5962 5962 5963 5963 5963 5963
5910 5912 5914 5916 5917 5919 5921 5923 5924 5925 5927 5928 5930 5931 5931 5933 5934 5936 5938 5940 5942 5943 5945 5946 5948 5949 5949 5951 5952 5953 5954 5956 5957 5958 5959 5959 5960 5961 5961 5961 5962 5962
5910 5912 5913 5914 5915 5917 5918 5920 5922 5924 5925 5926 5927 5928 5928 5930 5931 5933 5935 5937 5939 5941 5942 5944 5945 5946 5947 5949 5950 5951 5952 5953 5954 5955 5956 5957 5958 5958 5959 5960 5960 5960
5910 5912 5912 5913 5914 5915 5916 5918 5920 5922 5923 5924 5924 5925 5926 5927 5928 5930 5931 5933 5935 5937 5939 5941 5942 5943 5945 5946 5947 5948 5950 5951 5952 5953 5954 5955 5955 5956 5957 5958 5958 5959
5907 5909 5911 5912 5913 5914 5915 5916 5917 5919 5920 5921 5922 5923 5924 5925 5925 5926 5928 5929 5931 5933 5935 5937 5939 5940 5942 5943 5945 5946 5947 5948 5949 5950 5951 5952 5953 5954 5955 5955 5956 5957
5903 5905 5907 5909 5911 5913 5914 5915 5915 5916 5917 5918 5919 5920 5921 5921 5922 5924 5925 5926 5928 5930 5932 5934 5936 5937 5938 5940 5941 5942 5944 5945 5947 5948 5949 5950 5951 5951 5952 5952 5953 5954
5898 5900 5903 5905 5907 5910 5912 5913 5913 5913 5914 5915 5916 5917 5918 5919 5920 5921 5922 5923 5925 5926 5929 5931 5932 5933 5935 5936 5938 5939 5940 5942 5944 5945 5946 5947 5948 5948 5949 5949 5950 5951
5895 5897 5900 5901 5903 5906 5908 5909 5910 5911 5911 5912 5913 5914 5915 5915 5916 5917 5919 5920 5922 5923 5925 5927 5929 5930 5931 5933 5934 5935 5937 5939 5940 5941 5943 5944 5945 5945 5946 5946 5947 5948
5892 5895 5897 5898 5900 5902 5904 5905 5906 5907 5908 5909 5910 5911 5911 5912 5913 5915 5916 5918 5919 5921 5922 5923 5925 5926 5928 5929 5930 5931 5933 5935 5937 5938 5940 5941 5942 5942 5942 5943 5943 5944
5890 5892 5894 5895 5897 5899 5900 5901 5902 5904 5905 5906 5906 5907 5908 5909 5911 5912 5914 5915 5916 5918 5919 5920 5922 5923 5924 5925 5927 5928 5929 5931 5933 5935 5937 5938 5938 5938 5939 5939 5940 5940